This demonstration page uses our WeatherBlox Daily Observations layout. Learn more.

Left ArrowRight Arrow

Hourly Observations for April 12, 2018

Temp ( °F °C ) Dew Point ( °F °C ) Humidity (%) Winds ( mph kmh ) Pressure ( in mb ) Visibility ( mi km ) Precip ( " mm )
12:56 am 00:56 Clear 53 11.7 38 3.3 57 57 NNE 9 15 29.69 1005 10 16 0.00 0.00
1:56 am 01:56 Clear 52 11.1 39 3.9 61 61 N 15 24 29.70 1006 10 16 0.00 0.00
2:56 am 02:56 Clear 49 9.4 40 4.4 71 71 N 13 20 29.68 1005 10 16 0.00 0.00
3:56 am 03:56 Clear 46 7.8 40 4.4 79 79 N 10 17 29.67 1005 10 16 0.00 0.00
4:56 am 04:56 Clear 45 7.2 39 3.9 80 80 N 12 19 29.67 1005 10 16 0.00 0.00
5:56 am 05:56 Clear 41 5 37 2.8 86 86 N 12 19 29.66 1005 8 13 0.00 0.00
6:56 am 06:56 Clear with Mist and Fog 39 3.9 36 2.2 89 89 E 6 9 29.66 1005 6 10 0.00 0.00
7:56 am 07:56 Sunny with Mist and Fog 41 5 38 3.3 89 89 ENE 7 11 29.63 1004 5 8 0.00 0.00
8:56 am 08:56 Sunny 46 7.8 41 5 83 83 ENE 16 26 29.62 1003 8 13 0.00 0.00
9:56 am 09:56 Sunny 50 10 42 5.6 74 74 ENE 23 37 29.60 1002 10 16 0.00 0.00
10:56 am 10:56 Sunny 56 13.3 41 5 57 57 E 23 37 29.59 1002 10 16 0.00 0.00
11:56 am 11:56 Sunny 60 15.6 42 5.6 52 52 E 21 33 29.58 1002 10 16 0.00 0.00
12:56 pm 12:56 Sunny 62 16.7 42 5.6 48 48 E 22 35 29.56 1001 10 16 0.00 0.00
1:56 pm 13:56 Sunny 64 17.8 43 6.1 46 46 E 21 33 29.51 999 10 16 0.00 0.00
2:56 pm 14:56 Sunny 65 18.3 44 6.7 47 47 ESE 23 37 29.48 998 10 16 0.00 0.00
3:56 pm 15:56 Sunny 66 18.9 44 6.7 45 45 E 20 31 29.47 998 10 16 0.00 0.00
4:56 pm 16:56 Sunny 67 19.4 45 7.2 45 45 E 20 31 29.43 997 10 16 0.00 0.00
5:56 pm 17:56 Sunny 66 18.9 46 7.8 49 49 ENE 18 30 29.44 997 10 16 0.00 0.00
6:56 pm 18:56 Sunny 65 18.3 45 7.2 49 49 ENE 18 30 29.41 996 10 16 0.00 0.00
7:56 pm 19:56 Sunny 62 16.7 44 6.7 52 52 ENE 16 26 29.39 995 10 16 0.00 0.00
8:56 pm 20:56 Clear 58 14.4 43 6.1 58 58 NE 13 20 29.39 995 10 16 0.00 0.00
9:56 pm 21:56 Clear 55 12.8 42 5.6 62 62 NE 24 39 29.36 994 10 16 0.00 0.00
10:56 pm 22:56 Clear 55 12.8 41 5 59 59 ENE 26 43 29.32 993 10 16 0.00 0.00
11:56 pm 23:56 Clear 54 12.2 41 5 62 62 NE 25 41 29.29 992 10 16 0.00 0.00

Powered by AerisWeather